Regional Weather Roundup
Issued by NWS

Home | Current Version | Previous Version | Text Only | Print | Product List | Glossary On
Versions: 1 2 3 4 5 6 7 8 9 10 11 12 13 14 15 16 17 18 19 20 21 22 23 24 25 26 27 28 29 30 31 32 33 34 35 36 37 38 39 40 41 42 43 44 45 46 47 48 49 50
000
ASUS43 KDTX 130610
RWRMI
MICHIGAN HOURLY REGIONAL WEATHER ROUNDUP
NATIONAL WEATHER SERVICE DETROIT/PONTIAC MI
100 AM EST SAT FEB 13 2016

NOTE: "FAIR" INDICATES FEW OR NO CLOUDS BELOW 12,000 FEET WITH NO
SIGNIFICANT WEATHER AND/OR OBSTRUCTION TO VISIBILITY.

MIZ047>049-052>055-059>063-066>070-074>076-081>083-130700-
SOUTHEAST LOWER MICHIGAN

CITY           SKY/WX    TMP DP  RH WIND       PRES   REMARKS
ADRIAN         CLEAR      7  -4  60 N6        30.29R WCI  -3
6HR MIN TEMP:   6; 6HR MAX TEMP:  16; 6HR PCP: TRACE;

ALMA           CLEAR      5  -4  66 W10       30.30R WCI -10
6HR MIN TEMP:   5; 6HR MAX TEMP:  14;

ANN ARBOR      PTCLDY     6  -8  52 NW9       30.26R WCI  -8
BAD AXE        CLEAR      5  -6  60 NW18G25   30.22R WCI -15
CARO           PTCLDY     0  -8  71 NW6       30.25R WCI -12
DETROIT CITY   PTCLDY     7  -9  48 NW13G23   30.26R WCI  -9
6HR MIN TEMP:   7; 6HR MAX TEMP:  18; 6HR PCP: TRACE;

DETROIT        MOCLDY     8  -5  55 NW16G22   30.27R WCI -10
6HR MIN TEMP:   8; 6HR MAX TEMP:  18; 6HR PCP: TRACE;

FLINT          PTCLDY     6  -4  63 NW10      30.26R WCI  -9
6HR MIN TEMP:   6; 6HR MAX TEMP:  15; 6HR PCP:  0.01;

GROSSE ILE     CLOUDY     9  -4  56 NW16G22   30.26R WCI  -9
HILLSDALE      PTCLDY     5  -6  58 N12G22    30.25R WCI -10
6HR MIN TEMP:   5; 6HR MAX TEMP:  14;

HOWELL         PTCLDY     4  -8  57 NW7       30.25R WCI  -8

CITY           SKY/WX    TMP DP  RH WIND       PRES   REMARKS
JACKSON        PTCLDY     5 -10  50 NW17G28   30.28R WCI -14
6HR MIN TEMP:   5; 6HR MAX TEMP:  14; 6HR PCP: TRACE;

LAMBERTVILLE   CLEAR      8  -4  58 NW9G17    30.29R WCI  -5
6HR MIN TEMP:   8; 6HR MAX TEMP:  18;

LANSING        CLEAR      5  -7  57 NW13      30.30R WCI -12
6HR MIN TEMP:   5; 6HR MAX TEMP:  13; 6HR PCP: TRACE;

LAPEER         MOCLDY     3  -6  65 N6        30.24R WCI  -8
6HR MIN TEMP:   3; 6HR MAX TEMP:  15;

MASON          CLEAR      4  -7  59 NW7       30.28R WCI  -8
MONROE         PTCLDY     9  -8  47 NW15      30.27R WCI  -8
6HR MIN TEMP:   9; 6HR MAX TEMP:  18;

MT. CLEMENS    FLURRIES   7  -2  66 NW10      30.24R WCI  -8
6HR MIN TEMP:   6; 6HR MAX TEMP:  17; 6HR PCP: TRACE;

PONTIAC        MOCLDY     4  -6  63 NW10      30.22R WCI -11
6HR MIN TEMP:   4; 6HR MAX TEMP:  15; 6HR PCP: TRACE;

PORT HOPE        N/A      8  -3  61 NW23G37   30.19R WCI -13
6HR MIN TEMP:   7; 6HR MAX TEMP:  15;

PORT HURON     CLEAR      3  -8  60 NW13G23   30.22R WCI -14
TRI CITIES     CLEAR      6  -4  63 NW10      30.28R WCI  -9
6HR MIN TEMP:   6; 6HR MAX TEMP:  13; 6HR PCP: TRACE;

MIDLAND        MOCLDY     5  -5  64 W6        30.27S WCI  -6
6HR MIN TEMP:   5; 6HR MAX TEMP:  11;

TROY           CLEAR      8  -9  45 NW10G17   30.27R WCI  -6
SAGINAW HB     PTCLDY     7   1  78 W12       30.27S WCI  -9
$$
MIZ043>046-050>051-056>058-064>065-071>073-077>080-130700-
SOUTHWEST LOWER MICHIGAN

CITY           SKY/WX    TMP DP  RH WIND       PRES   REMARKS
BATTLE CREEK   CLEAR      6  -6  57 N12G20    30.31R WCI  -9
6HR MIN TEMP:   6; 6HR MAX TEMP:  14; 6HR PCP: TRACE;

BENTON HARBOR  LGT SNOW  14   4  64 NW12G21   30.37R WCI   0
6HR MIN TEMP:  13; 6HR MAX TEMP:  18; 6HR PCP: TRACE;

BIG RAPIDS     CLEAR      2  -4  77 W5        30.27S WCI  -8
6HR MIN TEMP:   2; 6HR MAX TEMP:   9;

COLDWATER      PTCLDY     7  -5  57 N9        30.30R WCI  -6
6HR MIN TEMP:   7; 6HR MAX TEMP:  15;

FREMONT        MOCLDY     5  -2  75 NW10      30.32S WCI -10
HOLLAND        FLURRIES   8   0  69 N6        30.36R WCI  -2
6HR MIN TEMP:   8; 6HR MAX TEMP:  17; 6HR PCP:  0.02;

GRAND RAPIDS   CLEAR      6  -4  63 NW12      30.34R WCI  -9
6HR MIN TEMP:   5; 6HR MAX TEMP:  15; 6HR PCP: TRACE;

IONIA          FAIR       4  -7  59 NW12      30.31R WCI -12
6HR MIN TEMP:   4; 6HR MAX TEMP:  14;

KALAMAZOO      CLEAR      5  -5  63 N14       30.33R WCI -12
6HR MIN TEMP:   5; 6HR MAX TEMP:  16; 6HR PCP: TRACE;

LUDINGTON      LGT SNOW   9   1  72 NW10G20   30.35S WCI  -6
6HR MIN TEMP:   7; 6HR MAX TEMP:  11;

MARSHALL       PTCLDY     6  -4  62 MISG      30.30R
6HR MIN TEMP:   6; 6HR MAX TEMP:  14;

MOUNT PLEASANT CLEAR      6  -5  61 W8        30.27R WCI  -7
6HR MIN TEMP:   6; 6HR MAX TEMP:  12;

MUSKEGON       FLURRIES   9   1  70 NW13      30.36F WCI  -7
6HR MIN TEMP:   8; 6HR MAX TEMP:  15; 6HR PCP:  0.01;

SOUTH HAVEN      N/A      9   5  84 NE10      30.36R WCI  -6
$$
MIZ016>042-130700-
NORTHERN LOWER MICHIGAN

CITY           SKY/WX    TMP DP  RH WIND       PRES   REMARKS
ALPENA         LGT SNOW  -2  -8  76 N16       30.28R WCI -23
6HR MIN TEMP:  -2; 6HR MAX TEMP:   5; 6HR PCP:  0.02;

BEAVER ISLAND  LGT SNOW   3  -1  82 E9        30.29R WCI -12
6HR MIN TEMP:   3; 6HR MAX TEMP:   7;

BELLAIRE       LGT SNOW   4  -2  79 N7        30.29R WCI  -9
6HR MIN TEMP:   4; 6HR MAX TEMP:   8;

CADILLAC       MOCLDY     3  -2  79 W9        30.20S WCI -12
CHARLEVOIX     CLOUDY     4  -2  76 NE13      30.30R HAZE    WCI -13
FRANKFORT      CLOUDY    10  -1  60 NW13G22   30.32S WCI  -5
GAYLORD        CLEAR     -6 -11  79 VRB5      30.21R WCI -17
6HR MIN TEMP:  -6; 6HR MAX TEMP:   3; 6HR PCP:  0.01;

GRAYLING       CLOUDY    -1  -7  76 N9        30.21R HAZE    WCI -16
HARBOR SPRINGS MOCLDY    -5 -12  72 NE7       30.29R WCI -20
HOUGHTON LAKE  CLOUDY     2  -5  72 N5        30.21R WCI  -8
6HR MIN TEMP:   2; 6HR MAX TEMP:   6; 6HR PCP: TRACE;

MANISTEE       CLOUDY     9   0  66 NW14G24   30.32S WCI  -8
OSCODA         PTCLDY     0  -8  69 NW13      30.25R WCI -18
6HR MIN TEMP:   0; 6HR MAX TEMP:   7;

PELLSTON       CLOUDY    -6 -15  65 NE8       30.32R WCI -21
6HR MIN TEMP:  -6; 6HR MAX TEMP:   4; 6HR PCP: TRACE;

ROGERS CITY    LGT SNOW  -3 -10  74 N10G24    30.30R WCI -20
TRAVERSE CITY  FLURRIES   8   3  80 W15       30.27R WCI  -9
6HR MIN TEMP:   7; 6HR MAX TEMP:   9; 6HR PCP: TRACE;

$$
MIZ007>008-015-130700-
EASTERN UPPER MICHIGAN

CITY           SKY/WX    TMP DP  RH WIND       PRES   REMARKS
KINROSS        CLOUDY   -13 -22  64 NE8       30.30R WCI -30
6HR MIN TEMP: -13; 6HR MAX TEMP:   1;

MACKINAC ISLAN PTCLDY   -10 -20  61 NE15      30.31R WCI -33
6HR MIN TEMP: -10; 6HR MAX TEMP:   1;

NEWBERRY       LGT SNOW   0  -2  88 NE3       30.26R
6HR MIN TEMP:   0; 6HR MAX TEMP:   3;

S. S. MARIE    CLEAR    -12 -25  52 NE10      30.29R WCI -31
6HR MIN TEMP: -12; 6HR MAX TEMP:  -3;

MUNISING         N/A      8   1  73 N21G31    30.30R WCI -12
6HR MIN TEMP:   5; 6HR MAX TEMP:   8; 6HR PCP:  0.05;

$$
MIZ004>006-011>014-085-130700-
CENTRAL UPPER MICHIGAN

CITY           SKY/WX    TMP DP  RH WIND       PRES   REMARKS
MANISTIQUE     LGT SNOW   3  -1  83 W8        30.29R VSB 1   WCI -10
6HR MIN TEMP:   1; 6HR MAX TEMP:   3;

ESCANABA       CLEAR      0 -11  60 W10       30.35S WCI -17
6HR MIN TEMP:   0; 6HR MAX TEMP:   1;

MENOMINEE      CLEAR      0  -9  65 W6        30.40S WCI -12
6HR MIN TEMP:   0; 6HR MAX TEMP:   3;

SAWYER-GWINN   LGT SNOW  -1  -6  78 NW15      30.29R WCI -20
6HR MIN TEMP:  -4; 6HR MAX TEMP:   0;

$$
MIZ001>003-009>011-084-130700-
WESTERN UPPER MICHIGAN

CITY           SKY/WX    TMP DP  RH WIND       PRES   REMARKS
IRON MOUNTAIN  CLEAR     -9 -14  78 CALM      30.33R
6HR MIN TEMP:  -9; 6HR MAX TEMP:  -1;

HOUGHTON       LGT SNOW   1  -7  68 N16G23    30.35R WCI -19
6HR MIN TEMP:   1; 6HR MAX TEMP:   2; 6HR PCP:  0.01;

COPPER HARBOR    N/A      5   0  79 N24G36    30.37R WCI -17
6HR MIN TEMP:   5; 6HR MAX TEMP:   7;

IRONWOOD       CLOUDY     1  -2  85 NW9       30.39R VSB 1   WCI -14
6HR MIN TEMP:   1; 6HR MAX TEMP:   3;

$$

ABBREVIATIONS USED IN REMARKS
   TC - TEMPERATURE IN CELSIUS
  WCI - WIND CHILL INDEX
   HX - HEAT INDEX
  VSB - VISIBILITY




USA.gov is the U.S. government's official web portal to all federal, state and local government web resources and services.